Location: La Pernelle
(49.6188°N, 1.2999°W)
Time: 02:45:45
(UTC+00:00)

NOSS 3-2 (A) - Pass Details

Date: 25 October 2021
Orbit: 771 x 1437 km, 63.4° (Epoch: 21 November)

Event Time Altitude Azimuth Distance (km) Brightness Sun altitude
Rises 22:50:47 0° 311° (NW) 4,048 7.3 -50.9°
Reaches altitude 10° 22:53:59 10° 298° (WNW) 3,187 6.5 -51.1°
Enters shadow 22:54:41 12° 294° (WNW) 3,024 6.3 -51.2°
